Location: Rotheul
(50.2849°N, 11.2349°E)
Time: 07:13:04
(UTC+02:00)

ISS - Pass Details

Date: 25 May 2018
Orbit: 402 x 407 km, 51.6° (Epoch: 21 May)

Event Time Altitude Azimuth Distance (km) Brightness Sun altitude
Rises 02:04:12 0° 287° (WNW) 2,321 0.1 -17.9°
Reaches altitude 10° 02:06:18 10° 282° (WNW) 1,459 -1.0 -17.8°
Enters shadow 02:08:15 31° 264° (W) 743 -2.7 -17.7°
